Year,Month,Day,Hour,Minute,Value (Times are PST for temperature in C)
2008,07,19,00,00,14.90
2008,07,19,00,01,14.80
2008,07,19,00,02,14.80
2008,07,19,00,03,14.80
2008,07,19,00,04,14.80
2008,07,19,00,05,14.80
2008,07,19,00,06,14.80
2008,07,19,00,07,14.70
2008,07,19,00,08,14.80
2008,07,19,00,09,14.80
2008,07,19,00,10,14.80
2008,07,19,00,11,14.80
2008,07,19,00,12,14.80
2008,07,19,00,13,14.80
2008,07,19,00,14,14.80
2008,07,19,00,15,14.80
2008,07,19,00,16,14.80
2008,07,19,00,17,14.80
2008,07,19,00,18,14.80
2008,07,19,00,19,14.80
2008,07,19,00,20,14.80
2008,07,19,00,21,14.90
2008,07,19,00,22,14.90
2008,07,19,00,23,14.90
2008,07,19,00,24,14.90
2008,07,19,00,25,14.90
2008,07,19,00,26,14.80
2008,07,19,00,27,14.90
2008,07,19,00,28,14.90
2008,07,19,00,29,14.90
2008,07,19,00,30,14.90
2008,07,19,00,31,14.90
2008,07,19,00,32,14.90
2008,07,19,00,33,14.90
2008,07,19,00,34,14.90
2008,07,19,00,35,14.90
2008,07,19,00,36,14.90
2008,07,19,00,37,15.00
2008,07,19,00,38,15.00
2008,07,19,00,39,15.00
2008,07,19,00,40,15.00
2008,07,19,00,41,15.00
2008,07,19,00,42,15.00
2008,07,19,00,43,15.00
2008,07,19,00,44,15.00
2008,07,19,00,45,14.90
2008,07,19,00,46,14.90
2008,07,19,00,47,14.90
2008,07,19,00,48,14.90
2008,07,19,00,49,14.90
2008,07,19,00,50,15.00
2008,07,19,00,51,15.00
2008,07,19,00,52,15.00
2008,07,19,00,53,15.00
2008,07,19,00,54,15.10
2008,07,19,00,55,15.10
2008,07,19,00,56,15.10
2008,07,19,00,57,15.10
2008,07,19,00,58,15.10
2008,07,19,00,59,15.10
2008,07,19,01,00,15.20
2008,07,19,01,01,15.20
2008,07,19,01,02,15.20
2008,07,19,01,03,15.10
2008,07,19,01,04,15.10
2008,07,19,01,05,15.10
2008,07,19,01,06,15.10
2008,07,19,01,07,15.10
2008,07,19,01,08,15.10
2008,07,19,01,09,15.10
2008,07,19,01,10,15.10
2008,07,19,01,11,15.10
2008,07,19,01,12,15.00
2008,07,19,01,13,15.00
2008,07,19,01,14,14.90
2008,07,19,01,15,14.90
2008,07,19,01,16,14.90
2008,07,19,01,17,14.90
2008,07,19,01,18,14.90
2008,07,19,01,19,14.90
2008,07,19,01,20,14.90
2008,07,19,01,21,14.90
2008,07,19,01,22,14.90
2008,07,19,01,23,14.90
2008,07,19,01,24,14.90
2008,07,19,01,25,14.90
2008,07,19,01,26,14.90
2008,07,19,01,27,14.90
2008,07,19,01,28,14.90
2008,07,19,01,29,14.90
2008,07,19,01,30,14.90
2008,07,19,01,31,14.90
2008,07,19,01,32,14.90
2008,07,19,01,33,14.90
2008,07,19,01,34,14.90
2008,07,19,01,35,14.90
2008,07,19,01,36,14.90
2008,07,19,01,37,14.90
2008,07,19,01,38,14.90
2008,07,19,01,39,14.90
2008,07,19,01,40,14.90
2008,07,19,01,41,14.90
2008,07,19,01,42,15.00
2008,07,19,01,43,15.00
2008,07,19,01,44,15.00
2008,07,19,01,45,15.00
2008,07,19,01,46,15.10
2008,07,19,01,47,15.10
2008,07,19,01,48,15.10
2008,07,19,01,49,15.10
2008,07,19,01,50,15.10
2008,07,19,01,51,15.20
2008,07,19,01,52,15.20
2008,07,19,01,53,15.20
2008,07,19,01,54,15.20
2008,07,19,01,55,15.30
2008,07,19,01,56,15.30
2008,07,19,01,57,15.30
2008,07,19,01,58,15.30
2008,07,19,01,59,15.30
2008,07,19,02,00,15.30
2008,07,19,02,01,15.30
2008,07,19,02,02,15.30
2008,07,19,02,03,15.30
2008,07,19,02,04,15.30
2008,07,19,02,05,15.30
2008,07,19,02,06,15.30
2008,07,19,02,07,15.30
2008,07,19,02,08,15.40
2008,07,19,02,09,15.40
2008,07,19,02,10,15.40
2008,07,19,02,11,15.40
2008,07,19,02,12,15.40
2008,07,19,02,13,15.40
2008,07,19,02,14,15.40
2008,07,19,02,15,15.50
2008,07,19,02,16,15.50
2008,07,19,02,17,15.50
2008,07,19,02,18,15.50
2008,07,19,02,19,15.50
2008,07,19,02,20,15.50
2008,07,19,02,21,15.50
2008,07,19,02,22,15.50
2008,07,19,02,23,15.50
2008,07,19,02,24,15.50
2008,07,19,02,25,15.50
2008,07,19,02,26,15.40
2008,07,19,02,27,15.40
2008,07,19,02,28,15.40
2008,07,19,02,29,15.40
2008,07,19,02,30,15.40
2008,07,19,02,31,15.30
2008,07,19,02,32,15.30
2008,07,19,02,33,15.30
2008,07,19,02,34,15.20
2008,07,19,02,35,15.10
2008,07,19,02,36,15.10
2008,07,19,02,37,15.00
2008,07,19,02,38,15.00
2008,07,19,02,39,14.90
2008,07,19,02,40,14.90
2008,07,19,02,41,14.80
2008,07,19,02,42,14.80
2008,07,19,02,43,14.80
2008,07,19,02,44,14.70
2008,07,19,02,45,14.60
2008,07,19,02,46,14.50
2008,07,19,02,47,14.40
2008,07,19,02,48,14.30
2008,07,19,02,49,14.20
2008,07,19,02,50,14.20
2008,07,19,02,51,14.10
2008,07,19,02,52,14.10
2008,07,19,02,53,14.10
2008,07,19,02,54,14.00
2008,07,19,02,55,14.00
2008,07,19,02,56,13.90
2008,07,19,02,57,13.90
2008,07,19,02,58,13.80
2008,07,19,02,59,13.80
2008,07,19,03,00,13.80
2008,07,19,03,01,13.70
2008,07,19,03,02,13.70
2008,07,19,03,03,13.70
2008,07,19,03,04,13.60
2008,07,19,03,05,13.60
2008,07,19,03,06,13.60
2008,07,19,03,07,13.50
2008,07,19,03,08,13.40
2008,07,19,03,09,13.30
2008,07,19,03,10,13.30
2008,07,19,03,11,13.20
2008,07,19,03,12,13.10
2008,07,19,03,13,13.10
2008,07,19,03,14,13.10
2008,07,19,03,15,13.20
2008,07,19,03,16,13.20
2008,07,19,03,17,13.20
2008,07,19,03,18,13.30
2008,07,19,03,19,13.30
2008,07,19,03,20,13.30
2008,07,19,03,21,13.30
2008,07,19,03,22,13.30
2008,07,19,03,23,13.30
2008,07,19,03,24,13.30
2008,07,19,03,25,13.40
2008,07,19,03,26,13.40
2008,07,19,03,27,13.40
2008,07,19,03,28,13.40
2008,07,19,03,29,13.50
2008,07,19,03,30,13.50
2008,07,19,03,31,13.50
2008,07,19,03,32,13.50
2008,07,19,03,33,13.50
2008,07,19,03,34,13.50
2008,07,19,03,35,13.50
2008,07,19,03,36,13.50
2008,07,19,03,37,13.40
2008,07,19,03,38,13.40
2008,07,19,03,39,13.30
2008,07,19,03,40,13.30
2008,07,19,03,41,13.30
2008,07,19,03,42,13.30
2008,07,19,03,43,13.30
2008,07,19,03,44,13.30
2008,07,19,03,45,13.30
2008,07,19,03,46,13.30
2008,07,19,03,47,13.30
2008,07,19,03,48,13.20
2008,07,19,03,49,13.20
2008,07,19,03,50,13.20
2008,07,19,03,51,13.20
2008,07,19,03,52,13.20
2008,07,19,03,53,13.20
2008,07,19,03,54,13.20
2008,07,19,03,55,13.10
2008,07,19,03,56,13.10
2008,07,19,03,57,13.10
2008,07,19,03,58,13.10
2008,07,19,03,59,13.10
2008,07,19,04,00,13.10
2008,07,19,04,01,13.10
2008,07,19,04,02,13.10
2008,07,19,04,03,13.10
2008,07,19,04,04,13.10
2008,07,19,04,05,13.10
2008,07,19,04,06,13.10
2008,07,19,04,07,13.10
2008,07,19,04,08,13.10
2008,07,19,04,09,13.10
2008,07,19,04,10,13.10
2008,07,19,04,11,13.00
2008,07,19,04,12,13.00
2008,07,19,04,13,13.00
2008,07,19,04,14,13.00
2008,07,19,04,15,13.00
2008,07,19,04,16,13.00
2008,07,19,04,17,12.90
2008,07,19,04,18,13.00
2008,07,19,04,19,12.90
2008,07,19,04,20,12.90
2008,07,19,04,21,12.90
2008,07,19,04,22,12.90
2008,07,19,04,23,12.90
2008,07,19,04,24,12.90
2008,07,19,04,25,12.90
2008,07,19,04,26,12.90
2008,07,19,04,27,12.90
2008,07,19,04,28,12.90
2008,07,19,04,29,12.90
2008,07,19,04,30,12.90
2008,07,19,04,31,12.90
2008,07,19,04,32,12.90
2008,07,19,04,33,13.00
2008,07,19,04,34,13.00
2008,07,19,04,35,13.00
2008,07,19,04,36,13.00
2008,07,19,04,37,13.10
2008,07,19,04,38,13.10
2008,07,19,04,39,13.10
2008,07,19,04,40,13.20
2008,07,19,04,41,13.20
2008,07,19,04,42,13.20
2008,07,19,04,43,13.20
2008,07,19,04,44,13.20
2008,07,19,04,45,13.30
2008,07,19,04,46,13.30
2008,07,19,04,47,13.30
2008,07,19,04,48,13.30
2008,07,19,04,49,13.30
2008,07,19,04,50,13.30
2008,07,19,04,51,13.20
2008,07,19,04,52,13.20
2008,07,19,04,53,13.10
2008,07,19,04,54,13.10
2008,07,19,04,55,13.00
2008,07,19,04,56,12.90
2008,07,19,04,57,12.90
2008,07,19,04,58,12.80
2008,07,19,04,59,12.80
2008,07,19,05,00,12.80
2008,07,19,05,01,12.80
2008,07,19,05,02,12.80
2008,07,19,05,03,12.80
2008,07,19,05,04,12.80
2008,07,19,05,05,12.80
2008,07,19,05,06,12.80
2008,07,19,05,07,12.80
2008,07,19,05,08,12.80
2008,07,19,05,09,12.80
2008,07,19,05,10,12.80
2008,07,19,05,11,12.80
2008,07,19,05,12,12.80
2008,07,19,05,13,12.80
2008,07,19,05,14,12.80
2008,07,19,05,15,12.80
2008,07,19,05,16,12.80
2008,07,19,05,17,12.80
2008,07,19,05,18,12.80
2008,07,19,05,19,12.70
2008,07,19,05,20,12.70
2008,07,19,05,21,12.70
2008,07,19,05,22,12.60
2008,07,19,05,23,12.60
2008,07,19,05,24,12.60
2008,07,19,05,25,12.60
2008,07,19,05,26,12.60
2008,07,19,05,27,12.60
2008,07,19,05,28,12.50
2008,07,19,05,29,12.50
2008,07,19,05,30,12.50
2008,07,19,05,31,12.60
2008,07,19,05,32,12.60
2008,07,19,05,33,12.60
2008,07,19,05,34,12.60
2008,07,19,05,35,12.70
2008,07,19,05,36,12.70
2008,07,19,05,37,12.70
2008,07,19,05,38,12.70
2008,07,19,05,39,12.70
2008,07,19,05,40,12.70
2008,07,19,05,41,12.80
2008,07,19,05,42,12.80
2008,07,19,05,43,12.80
2008,07,19,05,44,12.80
2008,07,19,05,45,12.80
2008,07,19,05,46,12.80
2008,07,19,05,47,12.80
2008,07,19,05,48,12.80
2008,07,19,05,49,12.80
2008,07,19,05,50,12.80
2008,07,19,05,51,12.80
2008,07,19,05,52,12.80
2008,07,19,05,53,12.80
2008,07,19,05,54,12.80
2008,07,19,05,55,12.80
2008,07,19,05,56,12.80
2008,07,19,05,57,12.80
2008,07,19,05,58,12.80
2008,07,19,05,59,12.70
2008,07,19,06,00,12.70
2008,07,19,06,01,12.60
2008,07,19,06,02,12.60
2008,07,19,06,03,12.60
2008,07,19,06,04,12.50
2008,07,19,06,05,12.50
2008,07,19,06,06,12.50
2008,07,19,06,07,12.60
2008,07,19,06,08,12.60
2008,07,19,06,09,12.60
2008,07,19,06,10,12.60
2008,07,19,06,11,12.60
2008,07,19,06,12,12.60
2008,07,19,06,13,12.60
2008,07,19,06,14,12.60
2008,07,19,06,15,12.60
2008,07,19,06,16,12.60
2008,07,19,06,17,12.60
2008,07,19,06,18,12.60
2008,07,19,06,19,12.60
2008,07,19,06,20,12.60
2008,07,19,06,21,12.60
2008,07,19,06,22,12.50
2008,07,19,06,23,12.50
2008,07,19,06,24,12.50
2008,07,19,06,25,12.50
2008,07,19,06,26,12.50
2008,07,19,06,27,12.50
2008,07,19,06,28,12.50
2008,07,19,06,29,12.50
2008,07,19,06,30,12.50
2008,07,19,06,31,12.50
2008,07,19,06,32,12.50
2008,07,19,06,33,12.50
2008,07,19,06,34,12.50
2008,07,19,06,35,12.50
2008,07,19,06,36,12.50
2008,07,19,06,37,12.50
2008,07,19,06,38,12.50
2008,07,19,06,39,12.50
2008,07,19,06,40,12.50
2008,07,19,06,41,12.60
2008,07,19,06,42,12.60
2008,07,19,06,43,12.60
2008,07,19,06,44,12.70
2008,07,19,06,45,12.70
2008,07,19,06,46,12.80
2008,07,19,06,47,12.80
2008,07,19,06,48,12.80
2008,07,19,06,49,12.90
2008,07,19,06,50,12.90
2008,07,19,06,51,13.00
2008,07,19,06,52,13.00
2008,07,19,06,53,13.10
2008,07,19,06,54,13.20
2008,07,19,06,55,13.20
2008,07,19,06,56,13.30
2008,07,19,06,57,13.30
2008,07,19,06,58,13.30
2008,07,19,06,59,13.30
2008,07,19,07,00,13.30
2008,07,19,07,01,13.30
2008,07,19,07,02,13.30
2008,07,19,07,03,13.40
2008,07,19,07,04,13.40
2008,07,19,07,05,13.40
2008,07,19,07,06,13.40
2008,07,19,07,07,13.40
2008,07,19,07,08,13.40
2008,07,19,07,09,13.40
2008,07,19,07,10,13.40
2008,07,19,07,11,13.50
2008,07,19,07,12,13.50
2008,07,19,07,13,13.50
2008,07,19,07,14,13.50
2008,07,19,07,15,13.60
2008,07,19,07,16,13.60
2008,07,19,07,17,13.70
2008,07,19,07,18,13.70
2008,07,19,07,19,13.80
2008,07,19,07,20,13.90
2008,07,19,07,21,14.00
2008,07,19,07,22,14.10
2008,07,19,07,23,14.10
2008,07,19,07,24,14.20
2008,07,19,07,25,14.30
2008,07,19,07,26,14.40
2008,07,19,07,27,14.50
2008,07,19,07,28,14.60
2008,07,19,07,29,14.70
2008,07,19,07,30,14.80
2008,07,19,07,31,14.80
2008,07,19,07,32,14.90
2008,07,19,07,33,14.90
2008,07,19,07,34,15.00
2008,07,19,07,35,15.10
2008,07,19,07,36,15.10
2008,07,19,07,37,15.20
2008,07,19,07,38,15.30
2008,07,19,07,39,15.30
2008,07,19,07,40,15.30
2008,07,19,07,41,15.30
2008,07,19,07,42,15.40
2008,07,19,07,43,15.40
2008,07,19,07,44,15.50
2008,07,19,07,45,15.50
2008,07,19,07,46,15.50
2008,07,19,07,47,15.50
2008,07,19,07,48,15.50
2008,07,19,07,49,15.50
2008,07,19,07,50,15.60
2008,07,19,07,51,15.60
2008,07,19,07,52,15.60
2008,07,19,07,53,15.60
2008,07,19,07,54,15.60
2008,07,19,07,55,15.60
2008,07,19,07,56,15.60
2008,07,19,07,57,15.60
2008,07,19,07,58,15.60
2008,07,19,07,59,15.60
2008,07,19,08,00,15.60
2008,07,19,08,01,15.60
2008,07,19,08,02,15.70
2008,07,19,08,03,15.70
2008,07,19,08,04,15.70
2008,07,19,08,05,15.70
2008,07,19,08,06,15.70
2008,07,19,08,07,15.70
2008,07,19,08,08,15.80
2008,07,19,08,09,15.70
2008,07,19,08,10,15.70
2008,07,19,08,11,15.70
2008,07,19,08,12,15.70
2008,07,19,08,13,15.70
2008,07,19,08,14,15.70
2008,07,19,08,15,15.80
2008,07,19,08,16,15.80
2008,07,19,08,17,15.80
2008,07,19,08,18,15.80
2008,07,19,08,19,15.80
2008,07,19,08,20,15.80
2008,07,19,08,21,15.80
2008,07,19,08,22,15.80
2008,07,19,08,23,15.80
2008,07,19,08,24,15.90
2008,07,19,08,25,15.90
2008,07,19,08,26,16.00
2008,07,19,08,27,16.10
2008,07,19,08,28,16.10
2008,07,19,08,29,16.10
2008,07,19,08,30,16.10
2008,07,19,08,31,16.10
2008,07,19,08,32,16.10
2008,07,19,08,33,16.10
2008,07,19,08,34,16.10
2008,07,19,08,35,16.20
2008,07,19,08,36,16.20
2008,07,19,08,37,16.20
2008,07,19,08,38,16.30
2008,07,19,08,39,16.30
2008,07,19,08,40,16.30
2008,07,19,08,41,16.30
2008,07,19,08,42,16.30
2008,07,19,08,43,16.40
2008,07,19,08,44,16.40
2008,07,19,08,45,16.40
2008,07,19,08,46,16.40
2008,07,19,08,47,16.50
2008,07,19,08,48,16.60
2008,07,19,08,49,16.70
2008,07,19,08,50,16.70
2008,07,19,08,51,16.70
2008,07,19,08,52,16.60
2008,07,19,08,53,16.60
2008,07,19,08,54,16.60
2008,07,19,08,55,16.60
2008,07,19,08,56,16.60
2008,07,19,08,57,16.70
2008,07,19,08,58,16.70
2008,07,19,08,59,16.70
2008,07,19,09,00,16.70
2008,07,19,09,01,16.70
2008,07,19,09,02,16.70
2008,07,19,09,03,16.70
2008,07,19,09,04,16.70
2008,07,19,09,05,16.70
2008,07,19,09,06,16.70
2008,07,19,09,07,16.60
2008,07,19,09,08,16.60
2008,07,19,09,09,16.70
2008,07,19,09,10,16.70
2008,07,19,09,11,16.70
2008,07,19,09,12,16.70
2008,07,19,09,13,16.70
2008,07,19,09,14,16.70
2008,07,19,09,15,16.70
2008,07,19,09,16,16.70
2008,07,19,09,17,16.70
2008,07,19,09,18,16.70
2008,07,19,09,19,16.70
2008,07,19,09,20,16.70
2008,07,19,09,21,16.70
2008,07,19,09,22,16.80
2008,07,19,09,23,16.80
2008,07,19,09,24,16.80
2008,07,19,09,25,16.80
2008,07,19,09,26,16.80
2008,07,19,09,27,16.90
2008,07,19,09,28,16.90
2008,07,19,09,29,17.00
2008,07,19,09,30,17.00
2008,07,19,09,31,17.00
2008,07,19,09,32,17.10
2008,07,19,09,33,17.10
2008,07,19,09,34,17.10
2008,07,19,09,35,17.00
2008,07,19,09,36,17.00
2008,07,19,09,37,17.00
2008,07,19,09,38,17.00
2008,07,19,09,39,16.90
2008,07,19,09,40,16.90
2008,07,19,09,41,16.80
2008,07,19,09,42,16.70
2008,07,19,09,43,16.70
2008,07,19,09,44,16.70
2008,07,19,09,45,16.70
2008,07,19,09,46,16.70
2008,07,19,09,47,16.70
2008,07,19,09,48,16.80
2008,07,19,09,49,16.90
2008,07,19,09,50,16.90
2008,07,19,09,51,16.90
2008,07,19,09,52,17.00
2008,07,19,09,53,17.10
2008,07,19,09,54,17.00
2008,07,19,09,55,17.00
2008,07,19,09,56,17.00
2008,07,19,09,57,16.90
2008,07,19,09,58,16.90
2008,07,19,09,59,17.00
2008,07,19,10,00,17.00
2008,07,19,10,01,17.10
2008,07,19,10,02,17.20
2008,07,19,10,03,17.20
2008,07,19,10,04,17.20
2008,07,19,10,05,17.30
2008,07,19,10,06,17.30
2008,07,19,10,07,17.30
2008,07,19,10,08,17.30
2008,07,19,10,09,17.30
2008,07,19,10,10,17.30
2008,07,19,10,11,17.30
2008,07,19,10,12,17.40
2008,07,19,10,13,17.50
2008,07,19,10,14,17.60
2008,07,19,10,15,17.70
2008,07,19,10,16,17.70
2008,07,19,10,17,17.70
2008,07,19,10,18,17.70
2008,07,19,10,19,17.70
2008,07,19,10,20,17.70
2008,07,19,10,21,17.70
2008,07,19,10,22,17.80
2008,07,19,10,23,17.80
2008,07,19,10,24,17.80
2008,07,19,10,25,17.70
2008,07,19,10,26,17.70
2008,07,19,10,27,17.70
2008,07,19,10,28,17.80
2008,07,19,10,29,17.90
2008,07,19,10,30,17.90
2008,07,19,10,31,18.00
2008,07,19,10,32,18.10
2008,07,19,10,33,18.10
2008,07,19,10,34,18.10
2008,07,19,10,35,18.10
2008,07,19,10,36,18.20
2008,07,19,10,37,18.20
2008,07,19,10,38,18.30
2008,07,19,10,39,18.20
2008,07,19,10,40,18.20
2008,07,19,10,41,18.20
2008,07,19,10,42,18.20
2008,07,19,10,43,18.20
2008,07,19,10,44,18.20
2008,07,19,10,45,18.20
2008,07,19,10,46,18.20
2008,07,19,10,47,18.20
2008,07,19,10,48,18.20
2008,07,19,10,49,18.30
2008,07,19,10,50,18.30
2008,07,19,10,51,18.30
2008,07,19,10,52,18.40
2008,07,19,10,53,18.50
2008,07,19,10,54,18.60
2008,07,19,10,55,18.60
2008,07,19,10,56,18.60
2008,07,19,10,57,18.60
2008,07,19,10,58,18.60
2008,07,19,10,59,18.60
2008,07,19,11,00,18.60
2008,07,19,11,01,18.50
2008,07,19,11,02,18.50
2008,07,19,11,03,18.60
2008,07,19,11,04,18.60
2008,07,19,11,05,18.70
2008,07,19,11,06,18.70
2008,07,19,11,07,18.80
2008,07,19,11,08,18.90
2008,07,19,11,09,18.90
2008,07,19,11,10,18.90
2008,07,19,11,11,18.90
2008,07,19,11,12,18.90
2008,07,19,11,13,18.90
2008,07,19,11,14,18.90
2008,07,19,11,15,18.90
2008,07,19,11,16,18.80
2008,07,19,11,17,18.80
2008,07,19,11,18,19.00
2008,07,19,11,19,19.10
2008,07,19,11,20,19.10
2008,07,19,11,21,19.10
2008,07,19,11,22,19.20
2008,07,19,11,23,19.20
2008,07,19,11,24,19.20
2008,07,19,11,25,19.20
2008,07,19,11,26,19.20
2008,07,19,11,27,19.10
2008,07,19,11,28,19.10
2008,07,19,11,29,19.10
2008,07,19,11,30,19.10
2008,07,19,11,31,19.10
2008,07,19,11,32,19.20
2008,07,19,11,33,19.30
2008,07,19,11,34,19.30
2008,07,19,11,35,19.30
2008,07,19,11,36,19.30
2008,07,19,11,37,19.40
2008,07,19,11,38,19.40
2008,07,19,11,39,19.50
2008,07,19,11,40,19.60
2008,07,19,11,41,19.70
2008,07,19,11,42,19.80
2008,07,19,11,43,19.80
2008,07,19,11,44,19.80
2008,07,19,11,45,19.80
2008,07,19,11,46,19.90
2008,07,19,11,47,20.00
2008,07,19,11,48,20.10
2008,07,19,11,49,20.00
2008,07,19,11,50,19.80
2008,07,19,11,51,19.80
2008,07,19,11,52,19.70
2008,07,19,11,53,19.50
2008,07,19,11,54,19.50
2008,07,19,11,55,19.50
2008,07,19,11,56,19.60
2008,07,19,11,57,19.50
2008,07,19,11,58,19.40
2008,07,19,11,59,19.40
2008,07,19,12,00,19.30
2008,07,19,12,01,19.30
2008,07,19,12,02,19.40
2008,07,19,12,03,19.60
2008,07,19,12,04,19.80
2008,07,19,12,05,20.10
2008,07,19,12,06,20.30
2008,07,19,12,07,20.40
2008,07,19,12,08,20.40
2008,07,19,12,09,20.50
2008,07,19,12,10,20.50
2008,07,19,12,11,20.30
2008,07,19,12,12,20.10
2008,07,19,12,13,20.00
2008,07,19,12,14,19.90
2008,07,19,12,15,19.70
2008,07,19,12,16,19.60
2008,07,19,12,17,19.50
2008,07,19,12,18,19.60
2008,07,19,12,19,19.70
2008,07,19,12,20,19.90
2008,07,19,12,21,20.10
2008,07,19,12,22,20.30
2008,07,19,12,23,20.40
2008,07,19,12,24,20.40
2008,07,19,12,25,20.40
2008,07,19,12,26,20.30
2008,07,19,12,27,20.20
2008,07,19,12,28,20.20
2008,07,19,12,29,20.20
2008,07,19,12,30,20.20
2008,07,19,12,31,20.10
2008,07,19,12,32,19.90
2008,07,19,12,33,19.90
2008,07,19,12,34,20.00
2008,07,19,12,35,20.10
2008,07,19,12,36,20.20
2008,07,19,12,37,20.10
2008,07,19,12,38,20.00
2008,07,19,12,39,19.90
2008,07,19,12,40,19.90
2008,07,19,12,41,19.90
2008,07,19,12,42,19.90
2008,07,19,12,43,19.90
2008,07,19,12,44,19.80
2008,07,19,12,45,19.70
2008,07,19,12,46,19.60
2008,07,19,12,47,19.50
2008,07,19,12,48,19.40
2008,07,19,12,49,19.40
2008,07,19,12,50,19.40
2008,07,19,12,51,19.40
2008,07,19,12,52,19.40
2008,07,19,12,53,19.50
2008,07,19,12,54,19.60
2008,07,19,12,55,19.60
2008,07,19,12,56,19.70
2008,07,19,12,57,19.70
2008,07,19,12,58,19.70
2008,07,19,12,59,19.80
2008,07,19,13,00,19.70
2008,07,19,13,01,19.60
2008,07,19,13,02,19.60
2008,07,19,13,03,19.50
2008,07,19,13,04,19.50
2008,07,19,13,05,19.50
2008,07,19,13,06,19.60
2008,07,19,13,07,19.70
2008,07,19,13,08,19.60
2008,07,19,13,09,19.60
2008,07,19,13,10,19.50
2008,07,19,13,11,19.40
2008,07,19,13,12,19.30
2008,07,19,13,13,19.30
2008,07,19,13,14,19.30
2008,07,19,13,15,19.40
2008,07,19,13,16,19.40
2008,07,19,13,17,19.40
2008,07,19,13,18,19.30
2008,07,19,13,19,19.40
2008,07,19,13,20,19.60
2008,07,19,13,21,19.80
2008,07,19,13,22,19.90
2008,07,19,13,23,20.00
2008,07,19,13,24,20.10
2008,07,19,13,25,20.20
2008,07,19,13,26,20.20
2008,07,19,13,27,20.20
2008,07,19,13,28,20.20
2008,07,19,13,29,20.20
2008,07,19,13,30,20.20
2008,07,19,13,31,20.30
2008,07,19,13,32,20.40
2008,07,19,13,33,20.50
2008,07,19,13,34,20.60
2008,07,19,13,35,20.60
2008,07,19,13,36,20.60
2008,07,19,13,37,20.70
2008,07,19,13,38,20.90
2008,07,19,13,39,20.90
2008,07,19,13,40,20.90
2008,07,19,13,41,20.90
2008,07,19,13,42,20.90
2008,07,19,13,43,20.80
2008,07,19,13,44,20.80
2008,07,19,13,45,20.80
2008,07,19,13,46,20.80
2008,07,19,13,47,20.80
2008,07,19,13,48,21.00
2008,07,19,13,49,21.00
2008,07,19,13,50,21.10
2008,07,19,13,51,21.10
2008,07,19,13,52,21.20
2008,07,19,13,53,21.20
2008,07,19,13,54,21.20
2008,07,19,13,55,21.30
2008,07,19,13,56,21.30
2008,07,19,13,57,21.30
2008,07,19,13,58,21.30
2008,07,19,13,59,21.30
2008,07,19,14,00,21.20
2008,07,19,14,01,21.00
2008,07,19,14,02,21.00
2008,07,19,14,03,21.00
2008,07,19,14,04,21.00
2008,07,19,14,05,21.10
2008,07,19,14,06,21.10
2008,07,19,14,07,21.10
2008,07,19,14,08,21.00
2008,07,19,14,09,21.00
2008,07,19,14,10,21.10
2008,07,19,14,11,21.10
2008,07,19,14,12,21.10
2008,07,19,14,13,21.10
2008,07,19,14,14,21.20
2008,07,19,14,15,21.30
2008,07,19,14,16,21.40
2008,07,19,14,17,21.50
2008,07,19,14,18,21.60
2008,07,19,14,19,21.60
2008,07,19,14,20,21.70
2008,07,19,14,21,21.70
2008,07,19,14,22,21.70
2008,07,19,14,23,21.60
2008,07,19,14,24,21.60
2008,07,19,14,25,21.60
2008,07,19,14,26,21.60
2008,07,19,14,27,21.70
2008,07,19,14,28,22.00
2008,07,19,14,29,22.10
2008,07,19,14,30,22.30
2008,07,19,14,31,22.50
2008,07,19,14,32,22.60
2008,07,19,14,33,22.70
2008,07,19,14,34,22.70
2008,07,19,14,35,22.60
2008,07,19,14,36,22.60
2008,07,19,14,37,22.50
2008,07,19,14,38,22.40
2008,07,19,14,39,22.40
2008,07,19,14,40,22.40
2008,07,19,14,41,22.40
2008,07,19,14,42,22.40
2008,07,19,14,43,22.40
2008,07,19,14,44,22.50
2008,07,19,14,45,22.60
2008,07,19,14,46,22.60
2008,07,19,14,47,22.70
2008,07,19,14,48,22.80
2008,07,19,14,49,22.90
2008,07,19,14,50,23.10
2008,07,19,14,51,23.20
2008,07,19,14,52,23.30
2008,07,19,14,53,23.50
2008,07,19,14,54,23.60
2008,07,19,14,55,23.70
2008,07,19,14,56,23.90
2008,07,19,14,57,23.90
2008,07,19,14,58,23.90
2008,07,19,14,59,23.90
2008,07,19,15,00,23.90
2008,07,19,15,01,23.90
2008,07,19,15,02,23.90
2008,07,19,15,03,23.80
2008,07,19,15,04,23.90
2008,07,19,15,05,23.90
2008,07,19,15,06,24.00
2008,07,19,15,07,24.10
2008,07,19,15,08,24.10
2008,07,19,15,09,24.20
2008,07,19,15,10,24.30
2008,07,19,15,11,24.30
2008,07,19,15,12,24.20
2008,07,19,15,13,24.10
2008,07,19,15,14,24.10
2008,07,19,15,15,24.10
2008,07,19,15,16,23.90
2008,07,19,15,17,23.80
2008,07,19,15,18,23.80
2008,07,19,15,19,23.90
2008,07,19,15,20,23.80
2008,07,19,15,21,23.70
2008,07,19,15,22,23.70
2008,07,19,15,23,23.70
2008,07,19,15,24,23.70
2008,07,19,15,25,23.60
2008,07,19,15,26,23.70
2008,07,19,15,27,23.80
2008,07,19,15,28,24.00
2008,07,19,15,29,24.10
2008,07,19,15,30,24.40
2008,07,19,15,31,24.50
2008,07,19,15,32,24.70
2008,07,19,15,33,24.70
2008,07,19,15,34,24.60
2008,07,19,15,35,24.50
2008,07,19,15,36,24.40
2008,07,19,15,37,24.30
2008,07,19,15,38,24.30
2008,07,19,15,39,24.40
2008,07,19,15,40,24.30
2008,07,19,15,41,24.20
2008,07,19,15,42,24.10
2008,07,19,15,43,24.10
2008,07,19,15,44,24.10
2008,07,19,15,45,24.10
2008,07,19,15,46,24.10
2008,07,19,15,47,24.10
2008,07,19,15,48,24.10
2008,07,19,15,49,24.10
2008,07,19,15,50,24.10
2008,07,19,15,51,24.10
2008,07,19,15,52,24.00
2008,07,19,15,53,23.90
2008,07,19,15,54,23.70
2008,07,19,15,55,23.70
2008,07,19,15,56,23.70
2008,07,19,15,57,23.80
2008,07,19,15,58,23.80
2008,07,19,15,59,23.80
2008,07,19,16,00,23.80
2008,07,19,16,01,23.70
2008,07,19,16,02,23.70
2008,07,19,16,03,23.60
2008,07,19,16,04,23.60
2008,07,19,16,05,23.60
2008,07,19,16,06,23.60
2008,07,19,16,07,23.70
2008,07,19,16,08,23.60
2008,07,19,16,09,23.50
2008,07,19,16,10,23.40
2008,07,19,16,11,23.40
2008,07,19,16,12,23.60
2008,07,19,16,13,23.70
2008,07,19,16,14,23.80
2008,07,19,16,15,23.90
2008,07,19,16,16,23.90
2008,07,19,16,17,23.90
2008,07,19,16,18,23.90
2008,07,19,16,19,23.90
2008,07,19,16,20,24.00
2008,07,19,16,21,23.90
2008,07,19,16,22,23.90
2008,07,19,16,23,23.80
2008,07,19,16,24,23.80
2008,07,19,16,25,23.80
2008,07,19,16,26,23.80
2008,07,19,16,27,23.90
2008,07,19,16,28,23.90
2008,07,19,16,29,23.90
2008,07,19,16,30,23.90
2008,07,19,16,31,23.90
2008,07,19,16,32,23.80
2008,07,19,16,33,23.80
2008,07,19,16,34,23.80
2008,07,19,16,35,23.80
2008,07,19,16,36,23.80
2008,07,19,16,37,23.80
2008,07,19,16,38,23.70
2008,07,19,16,39,23.70
2008,07,19,16,40,23.70
2008,07,19,16,41,23.70
2008,07,19,16,42,23.70
2008,07,19,16,43,23.70
2008,07,19,16,44,23.70
2008,07,19,16,45,23.70
2008,07,19,16,46,23.70
2008,07,19,16,47,23.70
2008,07,19,16,48,23.70
2008,07,19,16,49,23.70
2008,07,19,16,50,23.70
2008,07,19,16,51,23.70
2008,07,19,16,52,23.70
2008,07,19,16,53,23.70
2008,07,19,16,54,23.70
2008,07,19,16,55,23.70
2008,07,19,16,56,23.70
2008,07,19,16,57,23.70
2008,07,19,16,58,23.70
2008,07,19,16,59,23.70
2008,07,19,17,00,23.80
2008,07,19,17,01,23.80
2008,07,19,17,02,23.80
2008,07,19,17,03,23.80
2008,07,19,17,04,24.00
2008,07,19,17,05,24.10
2008,07,19,17,06,24.10
2008,07,19,17,07,24.10
2008,07,19,17,08,24.20
2008,07,19,17,09,24.20
2008,07,19,17,10,24.10
2008,07,19,17,11,24.10
2008,07,19,17,12,24.10
2008,07,19,17,13,24.10
2008,07,19,17,14,24.10
2008,07,19,17,15,24.30
2008,07,19,17,16,24.40
2008,07,19,17,17,24.50
2008,07,19,17,18,24.50
2008,07,19,17,19,24.50